Voltar ao catálogo

FENGYUN 1C DEB

AtivoSSO
NORAD 32205·DEBRIS·🇨🇳 China

Lançado May 10, 1999 de Taiyuan Satellite Launch Center

Loading…

Próximas Passagens (próximas 24 horas)

TLE

EnvelhecendoSource: Space-Track

Época: Sep 7, 2026, 19:19 UTC

1 32205U 99025CVB 26250.80555383  .00000145  00000-0  98764-4 0  9997
2 32205  98.6841 252.0039 0009908 238.8736 296.6727 14.14065800983002

Acompanhe FENGYUN 1C DEB em tempo real com AllMySat

Download on the App Store